Location: Crescent
(42.8242°N, 73.7329°W)
Time: 19:12:39
(UTC+00:00)

Transit 2A - Pass Details

Date: 08 November 2024
Orbit: 593 x 956 km, 66.7° (Epoch: 14 December)

Event Time Altitude Azimuth Distance (km) Brightness Sun altitude
Rises 09:51:54 0° 195° (SSW) 3,556 9.3 -19.8°
Reaches altitude 10° 09:54:26 10° 191° (S) 2,644 8.7 -19.3°
Maximum altitude 10:00:31 56° 115° (ESE) 1,121 7.1 -18.2°
Drops below altitude 10° 10:06:40 10° 39° (NE) 2,674 9.2 -17.1°
Sets 10:09:14 0° 35° (NE) 3,601 9.9 -16.6°
